Location: Devore Heights
(34.2372°N, 117.4156°W)
Time: 18:24:13
(UTC+00:00)

Vanguard 1 Rocket - Pass Details

Date: 13 September 2024
Orbit: 650 x 4218 km, 34.3° (Epoch: 04 October)

Event Time Altitude Azimuth Distance (km) Brightness Sun altitude
Rises 19:56:01 0° 288° (WNW) 8,455 12.3 59.0°
Reaches altitude 10° 20:03:37 10° 278° (W) 7,388 12.2 58.8°
Maximum altitude 20:21:20 26° 233° (SW) 5,353 12.2 58.0°
Drops below altitude 10° 20:34:35 10° 184° (S) 5,393 12.0 57.1°
Sets 20:39:05 0° 171° (S) 5,883 11.9 56.7°
